Weather History for Newton, IA

Change the Weather History Date:

Friday, November 15, 2013

  Actual Average Record
Temperature  
Mean Temperature 42 °F -  
Max Temperature 57 °F 47 °F 73 °F (2001)
Min Temperature 28 °F 29 °F 2 °F (1972)
Degree Days  
Heating Degree Days 22    
Moisture  
Dew Point 31 °F    
Average Humidity 67    
Maximum Humidity 87    
Minimum Humidity 38    
Precipitation  
Precipitation 0.00 in - - ()
Sea Level Pressure  
Sea Level Pressure 29.84 in    
Wind  
Wind Speed 8 mph (South)    
Max Wind Speed 14 mph    
Max Gust Speed 20 mph    
Visibility 10 miles    
Events      
Averages and records for this station are not official NWS values.
T = Trace of Precipitation, MM = Missing Value Source: NWS Daily Summary

Daily Weather History Graph

Daily Weather History Graph

Search for Another Location

Airport:

Trip Planner

Search our weather history database for the weather conditions in past years. The results will help you decide how hot, cold, wet, or windy it might be!

Date:

Astronomy

Nov. 15, 2013 Rise Set
Actual Time 7:01 AM CST 4:51 PM CST
Civil Twilight 6:31 AM CST 5:21 PM CST
Nautical Twilight 5:58 AM CST 5:55 PM CST
Astronomical Twilight 5:25 AM CST 6:27 PM CST
Moon 3:49 PM CST (11/15) 4:57 AM CST (11/15)
Length of Visible Light 10h 49m
Length of Day
9h 50m
Waxing Gibbous, 96% of the Moon is Illuminated
Nov 15
Waxing Gibbous
Nov 17
Full
Nov 25
Last Quarter
Dec 2
New
Dec 9
First Quarter

Hourly Weather History & Observations

Time (CST) Temp. Windchill Dew Point Humidity Pressure Visibility Wind Dir Wind Speed Gust Speed Precip Events Conditions
12:55 AM 39.2 °F 35.0 °F 28.4 °F 65% 29.90 in 10.0 mi SSW 5.8 mph - N/A   Scattered Clouds
1:15 AM 35.6 °F 30.7 °F 28.4 °F 75% 29.89 in 10.0 mi SSW 5.8 mph - N/A   Mostly Cloudy
1:35 AM 37.4 °F 33.8 °F 28.4 °F 70% 29.89 in 10.0 mi SW 4.6 mph - N/A   Mostly Cloudy
1:55 AM 37.4 °F 33.8 °F 28.4 °F 70% 29.89 in 10.0 mi SW 4.6 mph - N/A   Partly Cloudy
2:15 AM 37.4 °F 31.4 °F 28.4 °F 70% 29.89 in 10.0 mi SW 8.1 mph - N/A   Clear
2:35 AM 35.6 °F 29.9 °F 28.4 °F 75% 29.89 in 10.0 mi WSW 6.9 mph - N/A   Clear
2:55 AM 35.6 °F 29.9 °F 26.6 °F 70% 29.89 in 10.0 mi WSW 6.9 mph - N/A   Clear
3:15 AM 35.6 °F 29.9 °F 26.6 °F 70% 29.89 in 10.0 mi SW 6.9 mph - N/A   Clear
3:35 AM 35.6 °F 29.9 °F 28.4 °F 75% 29.89 in 10.0 mi SW 6.9 mph - N/A   Clear
3:55 AM 32.0 °F 25.6 °F 26.6 °F 80% 29.89 in 10.0 mi SSW 6.9 mph - N/A   Clear
4:15 AM 32.0 °F 25.6 °F 26.6 °F 80% 29.89 in 10.0 mi SSW 6.9 mph - N/A   Clear
4:35 AM 32.0 °F 25.6 °F 26.6 °F 80% 29.89 in 10.0 mi SSW 6.9 mph - N/A   Clear
4:55 AM 35.6 °F 30.7 °F 28.4 °F 75% 29.89 in 10.0 mi SW 5.8 mph - N/A   Clear
5:15 AM 35.6 °F 31.7 °F 28.4 °F 75% 29.88 in 10.0 mi SW 4.6 mph - N/A   Clear
5:35 AM 35.6 °F 31.7 °F 28.4 °F 75% 29.88 in 10.0 mi SW 4.6 mph - N/A   Clear
5:55 AM 32.0 °F 26.4 °F 26.6 °F 80% 29.88 in 10.0 mi SSW 5.8 mph - N/A   Clear
6:15 AM 28.4 °F 20.4 °F 24.8 °F 86% 29.89 in 10.0 mi South 8.1 mph - N/A   Clear
6:35 AM 30.2 °F 21.9 °F 26.6 °F 86% 29.90 in 10.0 mi SSW 9.2 mph - N/A   Clear
6:55 AM 30.2 °F 22.6 °F 26.6 °F 86% 29.90 in 9.0 mi South 8.1 mph - N/A   Clear
7:15 AM 30.2 °F 22.6 °F 26.6 °F 86% 29.90 in 10.0 mi SSW 8.1 mph - N/A   Clear
7:35 AM 32.0 °F 24.2 °F 28.4 °F 87% 29.90 in 10.0 mi South 9.2 mph - N/A   Clear
7:55 AM 33.8 °F 27.7 °F 28.4 °F 81% 29.91 in 10.0 mi South 6.9 mph - N/A   Clear
8:15 AM 35.6 °F 29.9 °F 30.2 °F 81% 29.91 in 10.0 mi South 6.9 mph - N/A   Clear
8:35 AM 37.4 °F 32.1 °F 30.2 °F 75% 29.91 in 9.0 mi South 6.9 mph - N/A   Clear
8:55 AM 39.2 °F 32.5 °F 30.2 °F 70% 29.92 in 10.0 mi SW 10.4 mph - N/A   Clear
9:15 AM 41.0 °F 35.2 °F 32.0 °F 70% 29.92 in 10.0 mi SW 9.2 mph - N/A   Clear
9:35 AM 42.8 °F 37.5 °F 32.0 °F 66% 29.92 in 10.0 mi SW 9.2 mph - N/A   Clear
9:55 AM 44.6 °F 40.7 °F 32.0 °F 61% 29.92 in 10.0 mi SW 6.9 mph - N/A   Clear
10:15 AM 44.6 °F 40.7 °F 32.0 °F 61% 29.92 in 10.0 mi SW 6.9 mph - N/A   Clear
10:35 AM 46.4 °F 42.9 °F 32.0 °F 57% 29.91 in 10.0 mi SW 6.9 mph - N/A   Clear
10:55 AM 48.2 °F - 32.0 °F 54% 29.91 in 10.0 mi South 8.1 mph - N/A   Clear
11:15 AM 50.0 °F - 32.0 °F 50% 29.89 in 10.0 mi South 8.1 mph - N/A   Clear
11:35 AM 51.8 °F - 32.0 °F 47% 29.88 in 10.0 mi SSW 11.5 mph - N/A   Clear
11:55 AM 51.8 °F - 32.0 °F 47% 29.87 in 10.0 mi South 10.4 mph - N/A   Clear
12:15 PM 53.6 °F - 32.0 °F 44% 29.86 in 10.0 mi South 11.5 mph 19.6 mph N/A   Clear
12:35 PM 53.6 °F - 32.0 °F 44% 29.85 in 10.0 mi South 11.5 mph - N/A   Clear
12:55 PM 55.4 °F - 32.0 °F 41% 29.84 in 9.0 mi SSW 12.7 mph - N/A   Clear
1:15 PM 55.4 °F - 32.0 °F 41% 29.83 in 10.0 mi South 12.7 mph - N/A   Clear
1:35 PM 55.4 °F - 32.0 °F 41% 29.83 in 10.0 mi SSW 9.2 mph 16.1 mph N/A   Clear
1:55 PM 55.4 °F - 32.0 °F 41% 29.83 in 10.0 mi SSW 11.5 mph 17.3 mph N/A   Clear
2:15 PM 57.2 °F - 32.0 °F 38% 29.82 in 10.0 mi South 11.5 mph - N/A   Clear
2:35 PM 57.2 °F - 32.0 °F 38% 29.82 in 9.0 mi South 12.7 mph - N/A   Clear
2:55 PM 55.4 °F - 32.0 °F 41% 29.82 in 10.0 mi South 12.7 mph 18.4 mph N/A   Clear
3:15 PM 55.4 °F - 32.0 °F 41% 29.81 in 10.0 mi South 12.7 mph - N/A   Clear
3:35 PM 55.4 °F - 32.0 °F 41% 29.80 in 10.0 mi South 13.8 mph 19.6 mph N/A   Clear
3:55 PM 53.6 °F - 32.0 °F 44% 29.80 in 10.0 mi South 12.7 mph - N/A   Clear
4:15 PM 55.4 °F - 33.8 °F 44% 29.80 in 10.0 mi South 12.7 mph - N/A   Clear
4:35 PM 51.8 °F - 33.8 °F 50% 29.79 in 9.0 mi South 9.2 mph - N/A   Clear
4:55 PM 50.0 °F - 33.8 °F 54% 29.79 in 9.0 mi SSE 9.2 mph - N/A   Clear
5:15 PM 46.4 °F 41.9 °F 33.8 °F 62% 29.79 in 7.0 mi South 9.2 mph - N/A   Clear
5:35 PM 44.6 °F 39.2 °F 33.8 °F 66% 29.78 in 10.0 mi SSE 10.4 mph - N/A   Clear
5:55 PM 46.4 °F 41.1 °F 33.8 °F 62% 29.79 in 9.0 mi South 11.5 mph - N/A   Clear
6:15 PM 44.6 °F 38.8 °F 33.8 °F 66% 29.79 in 10.0 mi South 11.5 mph - N/A   Clear
6:35 PM 44.6 °F 38.8 °F 33.8 °F 66% 29.79 in 10.0 mi South 11.5 mph - N/A   Clear
6:55 PM 42.8 °F 36.6 °F 32.0 °F 66% 29.79 in 10.0 mi South 11.5 mph - N/A   Clear
7:15 PM 42.8 °F 37.0 °F 32.0 °F 66% 29.78 in 10.0 mi South 10.4 mph - N/A   Clear
7:35 PM 41.0 °F 35.2 °F 32.0 °F 70% 29.78 in 10.0 mi South 9.2 mph - N/A   Clear
7:55 PM 41.0 °F 34.3 °F 32.0 °F 70% 29.77 in 10.0 mi SSE 11.5 mph - N/A   Clear
8:15 PM 41.0 °F 35.2 °F 32.0 °F 70% 29.77 in 10.0 mi SSE 9.2 mph - N/A   Clear
8:35 PM 39.2 °F 34.2 °F 32.0 °F 75% 29.77 in 10.0 mi SSE 6.9 mph - N/A   Clear
8:55 PM 37.4 °F 32.8 °F 32.0 °F 81% 29.77 in 10.0 mi SSE 5.8 mph - N/A   Clear
9:15 PM 37.4 °F 30.3 °F 32.0 °F 81% 29.76 in 10.0 mi SSE 10.4 mph - N/A   Clear
9:35 PM 35.6 °F 28.6 °F 32.0 °F 87% 29.75 in 10.0 mi SE 9.2 mph - N/A   Clear
9:55 PM 35.6 °F 29.2 °F 32.0 °F 87% 29.75 in 10.0 mi SSE 8.1 mph - N/A   Clear
10:15 PM 35.6 °F 27.5 °F 32.0 °F 87% 29.75 in 10.0 mi SE 11.5 mph - N/A   Clear
10:35 PM 37.4 °F 29.8 °F 33.8 °F 87% 29.75 in 10.0 mi SSE 11.5 mph - N/A   Clear
10:55 PM 41.0 °F 34.3 °F 35.6 °F 81% 29.75 in 10.0 mi SSE 11.5 mph - N/A   Clear
11:15 PM 39.2 °F 31.2 °F 35.6 °F 87% 29.74 in 10.0 mi SSE 13.8 mph - N/A   Clear
11:35 PM 39.2 °F 31.6 °F 35.6 °F 87% 29.74 in 10.0 mi SSE 12.7 mph - N/A   Clear
11:55 PM 41.0 °F 34.7 °F 37.4 °F 87% 29.74 in 10.0 mi SE 10.4 mph - N/A   Clear